Probability
0 0 0 0 0 0 0 0 0 1 0 0 0 0 0 1 2 1 1 2 3 4 4 3 5 8 9 8 7 3 0 0 0 0 1 1 0 0 0 0 0 0 0 0 0 0 0 0 0
0 0 0 0 0 0 0 0 1 1 0 0 0 0 0 1 1 1 1 2 3 3 3 2 4 7 8 7 7 3 1 0 0 1 2 2 1 1 1 0 0 0 0 0 0 0 0 0 0
0 0 0 0 0 0 0 0 1 1 0 0 0 1 2 1 1 0 1 3 3 3 2 2 5 7 7 6 5 3 1 0 0 1 2 3 3 2 2 1 0 0 0 0 0 0 0 0 0
0 0 0 0 0 0 0 0 0 0 0 0 1 2 3 2 1 1 2 3 3 3 3 4 6 7 5 4 4 3 2 1 0 1 2 3 3 3 3 2 1 1 1 0 0 0 0 0 0
0 0 0 0 0 0 0 0 0 0 0 0 1 2 3 2 1 2 3 3 3 3 3 3 5 5 2 2 3 3 2 1 0 1 2 3 3 3 3 3 3 2 1 0 0 0 0 0 0
0 0 0 0 0 0 0 0 0 0 0 0 1 2 1 1 1 3 3 3 3 3 2 2 3 2 1 1 2 2 1 0 0 0 1 1 2 3 3 3 2 2 1 0 0 0 0 0 0
0 0 0 0 0 0 0 0 0 0 0 0 1 1 1 1 2 3 3 3 3 3 2 1 2 2 1 0 1 1 1 0 0 0 0 0 1 2 2 1 1 1 0 0 0 0 0 0 0
0 0 0 0 0 0 0 0 0 1 1 1 1 1 2 3 4 3 3 3 3 4 2 1 1 2 1 0 0 0 0 0 0 0 0 0 0 1 1 0 0 0 0 0 0 0 0 0 0
0 0 0 0 0 0 0 0 0 1 2 2 2 3 4 5 5 4 3 3 3 3 2 1 1 2 1 0 0 0 0 0 0 0 0 0 0 0 0 0 0 0 0 0 0 0 0 0 0
0 0 0 0 0 0 0 0 0 1 1 1 1 2 3 4 4 3 2 2 2 1 1 0 1 2 2 1 0 0 0 0 0 0 0 0 0 0 0 0 0 0 0 0 0 0 0 0 0
0 0 0 0 0 0 0 0 0 0 0 0 0 1 1 2 2 1 1 1 1 0 0 0 0 2 2 1 0 0 0 0 0 0 0 0 0 0 0 0 0 0 0 0 0 0 0 0 0
0 0 0 0 0 0 0 0 0 0 0 0 0 0 0 1 1 1 0 0 0 0 0 0 1 2 3 2 1 0 0 0 0 0 0 0 0 0 0 0 0 0 0 0 0 0 0 0 0
0 0 0 0 0 0 0 0 0 0 0 0 0 0 0 0 1 1 1 1 0 0 0 1 3 3 3 2 1 0 0 0 0 0 0 0 0 0 0 0 0 0 0 0 0 0 0 0 0
0 0 0 0 0 0 0 0 0 0 0 0 0 0 0 0 0 1 2 2 1 0 0 1 2 3 3 2 1 0 0 0 0 0 0 0 0 0 0 0 0 0 0 0 0 0 0 0 0
0 0 0 0 0 0 0 0 0 0 0 0 0 0 0 0 0 1 2 3 2 1 0 0 2 3 3 3 3 2 1 0 0 0 0 0 0 0 0 0 0 0 0 0 0 0 0 0 0
0 0 0 0 0 0 0 0 0 0 0 0 0 0 0 0 0 0 1 2 3 2 1 1 2 3 3 4 5 4 3 1 0 0 0 0 0 0 0 0 0 0 0 0 0 0 0 0 0
0 0 0 0 0 0 0 0 0 0 0 0 0 0 0 0 0 0 0 1 2 3 3 3 3 4 4 4 5 5 4 2 1 0 0 0 0 0 0 0 0 0 0 0 0 0 0 0 0
0 0 0 0 0 0 0 0 0 0 0 0 0 0 0 0 0 0 0 0 1 2 3 3 3 4 4 4 4 4 4 3 2 1 0 0 0 0 0 0 0 0 0 0 0 0 0 0 0
0 0 0 0 0 0 0 0 0 0 0 0 0 0 0 0 0 0 0 0 0 1 1 2 3 4 5 4 3 4 4 3 3 2 1 0 0 0 0 0 0 0 0 0 0 0 0 0 0
0 0 0 0 0 0 0 0 0 0 0 0 0 0 0 0 0 0 0 0 0 0 0 1 2 4 6 5 4 5 4 4 3 3 2 1 0 0 0 0 0 0 0 0 0 0 0 0 0
0 0 0 0 0 0 0 0 0 0 0 0 0 0 0 0 0 0 0 0 0 0 0 0 0 2 4 6 6 6 6 5 4 4 3 1 0 0 0 0 0 0 0 0 0 0 0 0 0
0 0 0 0 0 0 0 0 0 0 0 0 0 0 0 0 0 0 0 0 0 0 1 1 1 1 2 5 6 6 6 6 6 5 4 2 0 0 0 0 0 0 0 0 0 0 0 0 0
0 0 0 0 0 0 0 0 0 0 0 0 0 0 0 0 0 0 0 0 0 1 2 2 2 1 1 3 5 6 6 6 6 5 4 2 1 0 0 0 0 0 0 0 0 0 0 0 0
0 0 0 0 0 0 0 0 0 0 0 0 0 0 0 0 0 0 0 0 0 1 2 3 3 2 1 1 3 4 4 4 4 4 3 3 1 0 0 0 0 0 0 0 0 0 0 0 0
0 0 0 0 0 0 0 0 0 0 0 0 0 0 0 0 0 0 0 0 0 0 1 3 3 2 1 0 1 2 3 3 3 3 3 3 2 1 0 0 0 0 0 0 0 0 0 0 0
0 0 0 0 0 0 0 0 0 0 0 0 0 0 0 0 0 0 0 0 0 0 1 2 2 2 1 0 0 1 2 3 3 3 3 3 3 2 1 0 0 0 0 0 0 0 0 0 0
0 0 0 0 0 0 0 0 0 0 0 0 0 0 0 0 0 0 0 0 0 0 0 1 1 1 0 0 0 0 1 2 3 3 3 3 3 3 2 1 0 0 0 0 0 0 0 0 0
0 0 0 0 0 0 0 0 0 0 0 0 0 0 0 0 0 0 0 0 0 0 0 0 0 0 0 0 0 0 0 1 2 3 3 3 3 3 2 1 0 0 0 0 0 0 0 0 0
0 0 0 0 0 0 0 0 0 0 0 0 0 0 0 0 0 0 0 0 0 0 0 0 0 0 0 0 0 0 0 0 1 2 2 2 2 3 2 1 0 0 0 0 0 0 0 0 0
0 0 0 0 0 0 0 0 0 0 0 0 0 0 0 0 0 0 0 0 0 0 0 0 0 0 0 0 0 0 0 0 0 1 1 1 1 2 2 1 0 0 0 0 0 0 0 0 0
Wind_Speed
11 9 6 3 3 5 8 5 3 0 2 4 5 3 4 5 4 5 3 4 5 7 9 8 7 7 8 8 9 9 10 10 10 10 9 9 10 10 10 10 10 10 10 11 11 12 12 12 12
9 7 4 3 4 6 6 5 2 2 3 3 2 2 2 5 6 6 3 3 5 7 8 7 7 8 8 8 9 9 10 9 9 9 9 9 9 9 9 10 10 10 10 11 11 12 12 11 11
9 7 4 3 5 6 3 2 4 4 4 2 1 2 3 4 5 4 4 4 5 7 8 8 8 8 8 8 9 8 9 9 9 9 8 9 9 9 10 10 10 10 10 11 11 12 11 10 9
4 3 4 5 8 6 3 2 3 2 1 1 0 3 4 5 4 4 5 4 6 7 8 8 7 8 7 7 8 8 8 8 8 8 8 9 9 9 10 10 10 10 10 10 10 10 10 10 9
4 3 5 6 9 6 1 2 2 1 1 1 1 2 5 4 6 6 4 4 6 6 7 8 8 8 7 7 7 8 8 8 8 8 8 9 9 9 9 9 10 10 10 10 10 9 9 9 8
3 3 5 7 7 5 2 1 1 2 1 0 1 1 4 5 5 4 4 4 5 6 7 7 8 8 8 8 8 8 8 8 8 9 8 8 9 9 9 9 9 9 9 9 9 9 9 9 8
4 4 7 8 6 3 2 1 1 2 1 0 1 0 4 4 4 4 4 4 5 6 6 5 5 6 8 8 8 8 9 9 9 9 8 8 9 9 9 9 9 9 9 9 9 9 8 8 8
4 4 6 6 6 3 2 2 0 2 1 1 2 0 3 5 5 4 4 4 5 5 5 5 4 5 5 5 6 7 8 8 8 9 8 8 8 8 8 8 8 8 8 8 8 8 7 7 7
4 4 6 5 3 1 3 2 1 1 0 0 1 2 4 7 6 5 3 3 4 4 4 4 4 4 4 4 5 5 6 7 7 6 7 6 4 5 5 7 7 7 8 8 8 7 7 6 5
4 5 5 2 3 1 0 1 1 2 3 3 2 2 5 6 6 5 4 4 4 4 4 4 4 4 4 3 4 3 3 3 3 3 4 3 3 3 5 7 7 7 7 7 7 6 5 4 2
4 5 4 1 3 3 2 2 2 3 4 4 4 4 4 5 5 5 5 4 4 4 4 4 4 4 3 2 3 2 2 2 2 4 3 3 3 3 3 3 3 4 4 3 4 3 1 2 2
5 5 4 3 2 2 3 3 3 5 4 2 1 3 5 5 5 5 5 5 5 5 4 4 4 4 3 3 2 2 2 2 2 3 3 2 2 2 2 2 2 2 1 2 1 1 2 2 2
7 6 3 2 2 3 4 4 4 6 4 2 1 2 4 5 4 4 4 4 5 5 5 4 4 4 3 3 2 2 2 2 2 2 2 2 2 2 3 2 2 2 2 2 1 1 2 2 2
3 4 4 4 5 4 5 5 5 6 4 3 4 4 4 5 4 3 4 4 5 5 6 5 5 4 3 3 3 2 2 2 2 2 2 2 2 2 3 3 2 2 2 1 1 1 2 1 1
3 5 6 6 5 3 3 7 8 6 4 4 4 5 5 5 4 5 5 5 5 5 5 5 5 5 4 4 3 3 2 2 2 2 2 2 2 2 3 3 2 2 2 2 1 1 1 1 1
5 6 6 5 5 4 4 8 5 4 6 6 5 5 5 5 5 4 4 4 5 5 6 5 5 5 5 4 3 3 3 3 2 2 2 3 3 3 3 3 2 2 1 1 1 1 1 1 1
6 7 7 5 6 4 6 7 3 3 5 6 5 5 5 4 4 4 3 4 5 6 6 6 6 6 5 4 3 3 3 3 2 2 2 3 3 3 3 2 2 2 1 1 1 1 1 1 1
5 7 6 6 4 4 7 9 6 5 5 5 5 4 4 4 4 3 3 3 4 5 6 6 6 6 5 4 3 3 3 2 2 2 2 3 3 3 3 2 2 2 1 1 1 1 1 1 1
6 6 7 5 2 4 8 10 9 6 6 6 5 4 4 3 3 3 3 3 3 4 4 5 5 6 5 4 4 4 3 3 2 2 3 3 3 3 3 2 2 2 2 2 2 1 1 1 1
8 9 7 4 1 3 6 10 9 7 7 6 5 4 4 2 2 2 3 3 3 4 4 4 5 5 5 4 3 3 3 3 2 2 2 3 3 3 3 3 2 2 2 2 2 1 1 0 1
8 8 7 4 3 4 4 8 7 5 6 5 5 5 3 3 3 3 3 3 3 3 4 4 4 5 5 5 3 3 3 2 2 2 2 2 3 3 2 3 3 2 2 2 2 2 2 1 1
7 4 5 5 3 3 3 6 6 5 6 6 5 4 4 3 3 3 3 3 3 2 2 3 4 4 4 5 5 6 4 4 4 3 3 3 3 3 3 3 3 2 2 2 2 2 1 2 1
2 1 3 4 4 5 5 5 7 4 5 5 4 3 2 2 3 3 3 3 2 2 2 2 3 3 4 4 5 5 4 3 3 3 4 4 3 3 3 3 3 3 2 2 2 2 1 2 2
1 0 2 3 2 6 8 7 6 4 5 5 4 4 3 3 3 3 3 3 3 2 2 2 3 3 3 4 4 5 5 4 4 4 4 4 3 3 4 3 3 3 2 2 2 2 2 2 2
3 2 1 2 5 7 4 6 6 1 3 4 5 5 4 3 3 3 3 3 3 2 1 1 2 3 3 3 4 5 5 5 5 5 5 4 3 3 4 4 3 3 3 2 2 2 3 2 2
7 5 4 4 4 3 3 7 4 2 4 4 5 5 4 3 3 3 3 2 2 2 1 1 1 2 3 3 3 3 4 4 3 4 3 3 3 3 4 4 4 4 3 3 2 2 2 2 2
5 6 3 1 1 3 6 5 2 2 2 2 3 4 2 2 2 3 2 2 2 1 1 1 1 1 1 2 2 2 3 3 3 3 3 2 2 2 4 4 4 4 4 3 3 2 2 2 3
3 3 2 3 3 5 6 6 4 3 3 3 3 3 2 2 3 3 2 2 1 1 1 1 1 1 1 1 1 2 2 2 2 2 2 2 2 2 3 3 3 3 3 3 3 2 2 3 3
6 5 5 4 4 4 4 3 1 3 5 4 3 3 3 2 2 2 1 2 2 2 2 1 1 1 1 1 1 1 1 2 2 2 2 2 2 3 3 3 3 3 3 3 3 3 3 3 3
6 7 7 5 5 5 4 4 2 4 4 4 3 3 2 2 2 2 1 1 2 2 2 2 2 1 1 1 1 1 1 2 2 2 2 2 2 2 3 3 3 3 3 3 3 3 3 4 4
Wind_Direction
299 276 263 258 244 236 244 241 238 148 30 38 29 6 30 35 24 88 109 81 94 115 125 128 115 117 120 118 119 118 115 112 109 106 104 100 97 95 91 87 86 85 84 82 83 83 82 81 79
292 285 263 238 243 243 239 227 219 65 67 69 58 337 54 78 72 97 103 89 110 119 124 124 115 116 120 122 119 119 117 115 112 108 105 102 100 98 94 89 86 85 84 82 83 84 82 82 81
274 262 249 231 239 249 265 74 79 74 71 79 107 30 38 60 77 90 95 115 113 113 115 113 109 111 119 123 120 119 120 118 115 110 105 102 101 99 96 91 88 85 84 82 81 81 80 80 80
266 236 238 242 247 255 285 37 66 85 93 76 97 96 85 53 49 79 105 119 115 110 111 114 112 112 117 123 122 121 124 123 118 112 108 105 101 99 98 95 90 87 85 82 80 79 79 78 76
240 244 231 238 246 249 273 35 11 327 190 159 215 128 103 80 77 97 110 110 110 110 109 118 111 109 112 119 126 125 123 123 118 113 108 104 101 101 100 97 93 89 86 84 82 79 77 78 73
239 241 241 238 237 229 157 90 297 279 297 44 325 150 109 105 91 101 110 109 107 106 108 117 110 109 108 109 113 119 118 116 113 111 108 104 100 101 99 96 93 89 85 82 80 79 77 76 73
258 255 256 262 255 240 166 119 236 277 259 331 320 147 125 113 96 106 109 108 105 104 112 122 125 116 107 105 106 109 109 107 104 101 102 101 97 96 94 91 89 88 86 82 80 78 76 74 70
276 272 258 254 255 248 116 136 36 320 298 39 344 8 131 124 111 108 110 111 108 108 115 125 126 121 120 112 106 109 111 107 104 100 98 99 98 94 88 86 86 87 87 85 84 79 76 74 70
269 250 253 256 258 199 124 172 144 56 1 57 20 36 86 120 124 121 119 115 116 119 123 129 130 125 127 131 123 116 116 114 111 107 105 106 106 102 94 86 87 88 86 84 81 77 77 75 65
233 245 252 304 351 13 128 218 175 183 213 226 195 104 110 133 143 147 152 156 152 149 145 140 140 135 135 138 130 133 129 126 119 115 115 112 103 101 103 96 91 86 81 80 79 77 75 67 53
230 247 268 320 357 335 290 279 236 224 232 226 211 170 148 160 166 168 171 170 164 158 152 148 147 137 133 133 132 131 126 132 124 113 118 117 107 106 102 99 96 88 83 75 77 75 53 58 53
239 258 283 300 345 306 277 267 254 239 246 315 348 151 161 185 189 185 179 173 162 154 152 141 133 130 135 136 135 130 124 125 120 122 129 123 113 113 113 109 104 101 89 84 79 69 61 61 58
235 245 250 269 274 277 279 265 266 250 247 238 195 179 187 200 204 198 183 168 161 162 157 151 143 142 148 141 138 130 124 122 118 116 119 119 127 130 121 115 111 108 100 102 97 82 75 61 48
275 264 255 251 244 248 260 262 258 250 232 206 187 204 205 210 207 198 187 179 177 171 161 155 152 151 147 145 141 140 141 132 127 126 128 122 126 130 119 116 118 110 103 104 105 102 102 91 69
266 261 253 236 224 213 256 259 233 233 224 221 213 215 211 207 202 203 195 187 182 171 160 159 159 154 153 158 156 144 151 146 135 141 144 134 118 126 123 123 121 110 108 109 100 97 91 85 72
234 240 243 217 201 185 214 256 231 199 210 227 225 221 211 207 201 201 193 182 176 168 164 164 163 162 164 163 161 151 154 144 140 144 142 138 128 130 129 129 125 117 111 111 117 115 98 80 70
220 234 235 219 188 190 215 253 246 219 221 233 228 223 214 206 202 196 185 177 173 172 166 165 167 167 167 160 158 154 148 141 147 143 143 144 135 131 123 124 124 118 106 100 111 92 103 100 73
218 234 243 235 187 209 231 250 255 246 234 234 232 228 218 213 198 172 170 167 163 164 164 167 169 168 163 156 155 155 149 150 152 140 141 148 145 132 125 129 128 125 122 108 93 94 78 95 91
285 267 258 257 248 247 243 257 260 239 233 234 233 231 226 216 175 154 152 145 147 150 159 169 173 171 164 166 170 170 173 165 156 146 147 153 147 141 138 135 141 144 146 146 130 110 103 69 65
260 266 265 268 293 276 272 268 258 234 227 222 223 227 219 207 180 144 137 145 162 163 169 175 176 173 169 171 175 166 158 155 157 147 150 155 149 147 147 145 149 153 148 145 143 129 125 110 101
241 250 260 271 306 254 275 278 235 217 213 217 216 217 211 193 186 163 155 161 159 168 179 183 177 174 171 164 151 138 129 128 149 166 171 166 156 151 146 153 150 157 152 162 166 166 154 161 187
244 247 267 273 275 263 230 280 250 208 206 210 214 204 199 189 170 153 153 164 167 165 160 173 172 168 167 165 169 171 175 174 176 169 168 164 158 158 161 160 153 155 157 169 179 178 178 154 187
242 337 268 261 258 276 237 252 266 204 206 202 187 165 149 147 149 146 150 156 137 116 129 155 158 164 166 172 177 180 185 175 153 153 164 166 165 166 165 166 167 170 174 178 175 175 177 172 182
140 12 286 261 238 253 227 223 265 211 200 171 160 147 132 114 110 110 112 120 107 97 106 140 154 162 166 173 180 182 181 171 162 171 176 176 169 168 171 174 177 180 178 178 182 184 188 193 194
185 157 185 214 215 237 190 216 248 198 115 132 143 133 122 114 109 107 105 106 106 103 108 135 150 167 166 174 188 192 185 180 181 185 187 180 175 178 182 178 182 187 188 181 178 181 192 196 199
205 202 194 213 227 249 199 225 238 109 86 81 99 107 105 108 112 115 116 115 120 119 123 132 156 172 174 183 193 195 187 184 185 187 187 188 185 185 179 181 181 182 187 186 181 188 196 199 204
197 217 248 270 300 269 239 233 214 105 121 124 113 110 114 111 102 103 103 100 104 123 135 136 143 148 171 188 184 181 183 186 182 177 178 180 176 172 174 181 185 185 184 185 182 191 201 207 211
240 191 166 197 213 244 239 225 223 187 187 143 136 144 145 107 85 77 73 64 67 76 83 96 112 132 131 139 156 156 169 172 164 160 176 179 176 169 169 177 186 184 183 189 188 190 197 207 218
197 200 202 211 227 223 248 239 93 138 156 159 156 134 131 128 120 106 80 59 54 49 48 50 80 99 109 119 123 131 148 153 152 163 175 178 175 174 177 180 181 186 192 192 194 205 196 201 215
211 204 189 192 227 231 252 253 57 80 95 115 122 116 116 122 121 113 96 73 63 52 45 38 36 55 83 111 114 116 115 128 146 162 166 163 173 181 179 177 179 194 203 198 202 210 211 208 213